Location: Kott?ru
(16.6209°N, 80.6208°E)
Time: 00:47:26
(UTC+00:00)

Cosmos 1763 Rocket - Pass Details

Date: 18 September 2020
Orbit: 733 x 779 km, 74.0° (Epoch: 26 October)

Event Time Altitude Azimuth Distance (km) Brightness Sun altitude
Exits shadow 22:58:11 47° 284° (WNW) 1,020 3.7 -21.8°
Maximum altitude 22:58:12 47° 285° (WNW) 1,020 3.7 -21.8°
Drops below altitude 10° 23:03:17 10° 358° (N) 2,326 6.1 -20.6°
Sets 23:05:45 0° 5° (N) 3,254 6.9 -20.0°
